STARLINK-30049 (56294 NORAD) Tracking and Keplerian Element Data

This shows tracking and keplerian element data for the satellite.

Feedback or suggestion? Click here.




ElementValue
Catalog56294
NameSTARLINK-30049
Epoch Orbit325
Epoch Day127.25001157
Epoch Year2023
RAAN97.2677
Inclination43.0021
Eccentricity0.0001205
Argument of Perigee269.7583
Mean Anonmoly321.2603
Mean Motion15.51841558
Decay Rate-0.00636487
L11 56294U 23056J 23127.25001157 -.00636487 00000+0 -11232-1 0 9993
L22 56294 43.0021 97.2677 0001205 269.7583 321.2603 15.51841558 3254



Live tracking and technical data element details for STARLINK-30049 (NORAD 56294). STARLINK-30049 can be tracked NOW for your location showing map with azimuth and elevation plus other details from your city location.







IsCatalogInMostPopularTable: catalog: 56294, numindb: 5
Update: records affected: 1



GetName: 56294 STARLINK-30049

Hit Count: updated at: Wed, 07 Jun 2023 08:30:58 GMT